Weather History for Kenansville, NC

Change the Weather History Date:

Monday, October 22, 2012

  Actual Average (KGSB) Record (KGSB)
Temperature  
Mean Temperature 54 °F -  
Max Temperature 71 °F 70 °F 83 °F (2007)
Min Temperature 37 °F 48 °F 41 °F (2012)
Degree Days  
Heating Degree Days 11    
Growing Degree Days 4 (Base 50)    
Moisture  
Dew Point 43 °F    
Average Humidity 76    
Maximum Humidity 100    
Minimum Humidity 33    
Precipitation  
Precipitation 0.00 in - - ()
Sea Level Pressure  
Sea Level Pressure 30.19 in    
Wind  
Wind Speed 1 mph (NW)    
Max Wind Speed 6 mph    
Max Gust Speed -    
Visibility 9 miles    
Events      
Averages and records for this station are not official NWS values.
T = Trace of Precipitation, MM = Missing Value Source: NWS Daily Summary

Daily Weather History Graph

Daily Weather History Graph

Search for Another Location

Airport:

Trip Planner

Search our weather history database for the weather conditions in past years. The results will help you decide how hot, cold, wet, or windy it might be!

Date:

Astronomy

Oct. 22, 2012 Rise Set
Actual Time 7:24 AM EDT 6:27 PM EDT
Civil Twilight 6:58 AM EDT 6:53 PM EDT
Nautical Twilight 6:28 AM EDT 7:23 PM EDT
Astronomical Twilight 5:59 AM EDT 7:52 PM EDT
Moon 2:20 PM EDT (10/22) 12:24 AM EDT (10/22)
Length of Visible Light 11h 55m
Length of Day
11h 03m
First Quarter, 56% of the Moon is Illuminated
Oct 22
First Quarter
Oct 29
Full
Nov 6
Last Quarter
Nov 13
New
Nov 20
First Quarter

Hourly Weather History & Observations

Time (EDT) Temp. Dew Point Humidity Pressure Visibility Wind Dir Wind Speed Gust Speed Precip Events Conditions
12:15 AM 42.8 °F 41.0 °F 93% 30.16 in 10.0 mi Calm Calm - N/A   Clear
12:35 AM 41.0 °F 41.0 °F 100% 30.16 in 10.0 mi Calm Calm - N/A   Clear
12:55 AM 41.0 °F 41.0 °F 100% 30.16 in 10.0 mi Calm Calm - N/A   Clear
1:35 AM 41.0 °F 41.0 °F 100% 30.17 in 10.0 mi Calm Calm - N/A   Clear
1:55 AM 41.0 °F 41.0 °F 100% 30.17 in 10.0 mi Calm Calm - N/A   Clear
2:15 AM 41.0 °F 41.0 °F 100% 30.17 in 7.0 mi Calm Calm - N/A   Clear
2:55 AM 41.0 °F 41.0 °F 100% 30.17 in 10.0 mi Calm Calm - N/A   Clear
3:15 AM 41.0 °F 41.0 °F 100% 30.17 in 7.0 mi Calm Calm - N/A   Clear
3:55 AM 39.2 °F 39.2 °F 100% 30.17 in 7.0 mi Calm Calm - N/A   Clear
4:15 AM 39.2 °F 39.2 °F 100% 30.17 in 7.0 mi Calm Calm - N/A   Clear
4:35 AM 39.2 °F 37.4 °F 93% 30.17 in 7.0 mi Calm Calm - N/A   Clear
4:55 AM 37.4 °F 37.4 °F 100% 30.18 in 10.0 mi Calm Calm - N/A   Clear
5:15 AM 37.4 °F 37.4 °F 100% 30.18 in 10.0 mi Calm Calm - N/A   Clear
5:35 AM 37.4 °F 37.4 °F 100% 30.18 in 7.0 mi Calm Calm - N/A   Clear
5:55 AM 37.4 °F 37.4 °F 100% 30.19 in 7.0 mi Calm Calm - N/A   Clear
6:15 AM 37.4 °F 37.4 °F 100% 30.20 in 10.0 mi Calm Calm - N/A   Clear
6:35 AM 37.4 °F 37.4 °F 100% 30.20 in 10.0 mi Calm Calm - N/A   Clear
7:15 AM 37.4 °F 37.4 °F 100% 30.21 in 7.0 mi Calm Calm - N/A   Clear
7:35 AM 37.4 °F 37.4 °F 100% 30.22 in 5.0 mi Calm Calm - N/A   Clear
7:55 AM 39.2 °F 39.2 °F 100% 30.23 in 5.0 mi Calm Calm - N/A   Clear
8:15 AM 41.0 °F 41.0 °F 100% 30.23 in 10.0 mi Calm Calm - N/A   Clear
8:35 AM 42.8 °F 42.8 °F 100% 30.24 in 7.0 mi Calm Calm - N/A   Clear
9:15 AM 50.0 °F 46.4 °F 87% 30.25 in 10.0 mi Calm Calm - N/A   Clear
9:35 AM 53.6 °F 46.4 °F 77% 30.25 in 10.0 mi Calm Calm - N/A   Clear
10:15 AM 59.0 °F 46.4 °F 63% 30.25 in 10.0 mi Calm Calm - N/A   Clear
10:35 AM 60.8 °F 44.6 °F 55% 30.25 in 10.0 mi NNW 3.5 mph - N/A   Clear
10:55 AM 62.6 °F 44.6 °F 52% 30.25 in 10.0 mi Calm Calm - N/A   Clear
11:15 AM 64.4 °F 44.6 °F 49% 30.24 in 10.0 mi North 3.5 mph - N/A   Unknown
11:35 AM 64.4 °F 42.8 °F 45% 30.24 in 10.0 mi Calm Calm - N/A   Unknown
11:55 AM 64.4 °F 44.6 °F 49% 30.24 in 10.0 mi Calm Calm - N/A   Unknown
12:15 PM 68.0 °F 41.0 °F 37% 30.23 in 10.0 mi Calm Calm - N/A   Unknown
12:35 PM 68.0 °F 42.8 °F 40% 30.22 in 10.0 mi WNW 5.8 mph - N/A   Unknown
12:55 PM 68.0 °F 41.0 °F 37% 30.22 in 10.0 mi NNW 4.6 mph - N/A   Unknown
1:15 PM 68.0 °F 41.0 °F 37% 30.21 in 10.0 mi NW 3.5 mph - N/A   Unknown
1:35 PM 68.0 °F 41.0 °F 37% 30.20 in 10.0 mi Calm Calm - N/A   Unknown
1:55 PM 69.8 °F 41.0 °F 35% 30.19 in 10.0 mi NW 5.8 mph - N/A   Unknown
2:15 PM 69.8 °F 41.0 °F 35% 30.18 in 10.0 mi WSW 3.5 mph - N/A   Unknown
2:35 PM 71.6 °F 42.8 °F 35% 30.17 in 10.0 mi WNW 5.8 mph - N/A   Clear
2:55 PM 71.6 °F 41.0 °F 33% 30.16 in 10.0 mi Calm Calm - N/A   Clear
3:15 PM 71.6 °F 41.0 °F 33% 30.16 in 10.0 mi NW 3.5 mph - N/A   Unknown
3:55 PM 71.6 °F 41.0 °F 33% 30.16 in 10.0 mi NNW 3.5 mph - N/A   Clear
4:15 PM 71.6 °F 41.0 °F 33% 30.15 in 10.0 mi North 3.5 mph - N/A   Clear
4:35 PM 71.6 °F 41.0 °F 33% 30.15 in 10.0 mi North 4.6 mph - N/A   Clear
4:55 PM 71.6 °F 41.0 °F 33% 30.15 in 10.0 mi Calm Calm - N/A   Clear
5:15 PM 71.6 °F 41.0 °F 33% 30.15 in 10.0 mi Calm Calm - N/A   Clear
5:35 PM 68.0 °F 50.0 °F 52% 30.16 in 10.0 mi Calm Calm - N/A   Clear
5:55 PM 62.6 °F 53.6 °F 72% 30.16 in 10.0 mi Calm Calm - N/A   Clear
6:15 PM 59.0 °F 53.6 °F 82% 30.16 in 10.0 mi Calm Calm - N/A   Clear
6:35 PM 57.2 °F 53.6 °F 88% 30.17 in 10.0 mi Calm Calm - N/A   Clear
7:15 PM 53.6 °F 51.8 °F 94% 30.17 in 10.0 mi Calm Calm - N/A   Clear
7:35 PM 51.8 °F 50.0 °F 94% 30.17 in 10.0 mi Calm Calm - N/A   Clear
7:55 PM 51.8 °F 50.0 °F 94% 30.17 in 10.0 mi Calm Calm - N/A   Clear
8:15 PM 51.8 °F 50.0 °F 94% 30.18 in 10.0 mi Calm Calm - N/A   Clear
8:35 PM 50.0 °F 48.2 °F 94% 30.18 in 10.0 mi Calm Calm - N/A   Clear
8:55 PM 50.0 °F 48.2 °F 94% 30.18 in 10.0 mi Calm Calm - N/A   Clear
9:15 PM 50.0 °F 48.2 °F 94% 30.18 in 10.0 mi Calm Calm - N/A   Clear
9:35 PM 48.2 °F 46.4 °F 93% 30.18 in 10.0 mi Calm Calm - N/A   Clear
9:55 PM 48.2 °F 46.4 °F 93% 30.19 in 7.0 mi Calm Calm - N/A   Clear
10:35 PM 46.4 °F 46.4 °F 100% 30.19 in 10.0 mi Calm Calm - N/A   Clear
10:55 PM 46.4 °F 46.4 °F 100% 30.20 in 10.0 mi Calm Calm - N/A   Clear
11:15 PM 46.4 °F 44.6 °F 93% 30.20 in 7.0 mi Calm Calm - N/A   Clear
11:55 PM 46.4 °F 44.6 °F 93% 30.20 in 7.0 mi Calm Calm - N/A   Clear